カタログに戻る

COSMOS 2251 DEB

運用中LEO
NORAD 33972·DEBRIS·🇷🇺 Russia

打ち上げ Jun 16, 1993 から Plesetsk Cosmodrome

Loading…

次のパス (今後24時間)

TLE

最新Source: Space-Track

元期: Sep 14, 2026, 08:48 UTC

1 33972U 93036FF  26257.36714595  .00003767  00000-0  11366-2 0  9999
2 33972  73.9951  41.8274 0120739 145.2116 242.7946 14.38660810910357

AllMySatでCOSMOS 2251 DEBをリアルタイム追跡

Download on the App Store